Weather observations for the past three days for
Austin-Bergstrom International Airport
Imperial (Metric)
Date Time (cdt) Wind (mph) Vis. (mi.) Weather Sky Cond. Temperature (ºF) Relative Humidity Wind Chill (°F) Heat Index (°F) Pressure Precipitation (in)
Air Dwpt 6 hour altimeter (in) sea level (mb) 1 hr 3 hr 6 hr
Max. Min.
15 19:53 SE 13 10.00 Partly Cloudy FEW055 SCT075 90 72 56% 97 29.81 1008.3
15 18:53 SE 14 G 24 10.00 Partly Cloudy FEW055 SCT075 93 71.1 96.1 90 49% 100 29.81 1008.1
15 17:53 SE 14 10.00 Partly Cloudy FEW060 SCT075 95 71.1 46% 102 29.81 1008.1
15 16:53 S 8 10.00 A Few Clouds FEW055 95 71.1 46% 102 29.82 1008.6
15 15:53 E 10 10.00 Partly Cloudy SCT060 95 70 44% 101 29.84 1009.3
15 14:53 SE 7 10.00 A Few Clouds FEW060 93.9 68 43% 98 29.86 1009.9
15 13:53 SE 3 10.00 Partly Cloudy SCT060 93 70 47% 99 29.89 1010.8
15 12:53 SE 5 10.00 Partly Cloudy SCT050 91.9 69.1 91.9 71.1 47% 97 29.91 1011.8
15 11:53 SE 8 10.00 Partly Cloudy SCT042 89.1 72 57% 96 29.93 1012.2
15 10:53 S 7 10.00 Partly Cloudy SCT032 87.1 73 63% 95 29.94 1012.6
15 09:53 S 6 10.00 A Few Clouds FEW023 84.9 75 72% 93 29.96 1013.3
15 08:53 W 3 10.00 A Few Clouds FEW011 FEW045 82 75.9 82% 89 29.96 1013.4
15 07:53 Calm 8.00 Partly Cloudy SCT046 78.1 73.9 87% 81 29.95 1013.0
15 06:53 Calm 8.00 Partly Cloudy FEW020 SCT045 72 71.1 78.1 71.1 97% 29.94 1012.6
15 05:53 Calm 10.00 A Few Clouds FEW020 71.1 71.1 100% 29.93 1012.3
15 04:53 Calm 10.00 Mostly Cloudy FEW018 BKN033 72 71.1 97% 29.92 1012.0
15 03:53 Calm 10.00 A Few Clouds FEW250 73 71.1 94% 29.91 1011.8
15 02:53 S 6 10.00 A Few Clouds FEW250 75.9 72 88% 76 29.92 1011.9
15 01:53 S 6 10.00 A Few Clouds FEW250 75.9 72 88% 76 29.93 1012.2
15 00:53 S 7 10.00 A Few Clouds FEW250 78.1 70 93 75 76% 80 29.94 1012.5
14 23:53 Calm 10.00 A Few Clouds FEW070 FEW250 75.9 70 82% 77 29.94 1012.7
14 22:53 SE 5 10.00 A Few Clouds FEW070 FEW250 82.9 69.1 63% 87 29.93 1012.2
14 21:53 E 6 10.00 A Few Clouds FEW070 82.9 69.1 63% 87 29.91 1011.5
14 20:53 E 5 10.00 A Few Clouds FEW070 86 69.1 57% 90 29.88 1010.7
14 19:53 E 9 10.00 A Few Clouds FEW070 91 68 47% 95 29.88 1010.5
14 18:53 E 13 10.00 A Few Clouds FEW070 93 69.1 97 91 46% 98 29.87 1010.2
14 17:53 E 9 10.00 Partly Cloudy SCT070 93.9 66 40% 97 29.87 1010.2
14 16:53 S 5 10.00 Partly Cloudy SCT070 95 66.9 40% 99 29.88 1010.6
14 15:53 E 3 10.00 Partly Cloudy SCT065 95 66.9 40% 99 29.89 1011.0
14 14:53 Vrbl 5 10.00 Partly Cloudy SCT050 95 68 41% 100 29.91 1011.6
14 13:53 S 5 10.00 A Few Clouds FEW050 93.9 70 46% 100 29.94 1012.5
14 12:53 SE 6 10.00 Partly Cloudy SCT048TCU 91 71.1 91.9 73 52% 98 29.97 1013.5
14 11:53 NW 3 10.00 Partly Cloudy SCT042TCU 89.1 71.1 55% 95 29.97 1013.8
14 10:53 SE 8 10.00 Partly Cloudy SCT030 SCT050 88 73.9 63% 97 29.97 1013.5
14 09:53 S 8 10.00 A Few Clouds FEW021 86 75 70% 95 29.97 1013.7
14 08:53 Calm 10.00 A Few Clouds FEW014 82 75.9 82% 89 29.98 1014.0
14 07:53 E 3 8.00 Partly Cloudy FEW020 SCT047 78.1 75.9 93% 81 29.97 1013.8
14 06:53 Calm 10.00 Mostly Cloudy FEW020 BKN050 73 72 78.1 72 96% 29.97 1013.6
14 05:53 Calm 9.00 A Few Clouds FEW040 73 73 100% 29.95 1012.9
14 04:53 Calm 9.00 Mostly Cloudy SCT034 BKN043 73 72 96% 29.93 1012.4
14 03:53 Calm 10.00 Fair CLR 73 71.1 94% 29.93 1012.3
14 02:53 Calm 10.00 Fair CLR 75 73 94% 73 29.92 1012.1
14 01:53 Calm 10.00 Fair CLR 77 73 88% 78 29.92 1012.0
14 00:53 SE 3 10.00 Fair CLR 77 73 93 75.9 88% 78 29.93 1012.2
13 23:53 Calm 10.00 Fair CLR 77 73 88% 78 29.93 1012.3
13 22:53 E 3 10.00 Fair CLR 82 73 74% 87 29.92 1011.9
13 21:53 E 3 10.00 Fair CLR 82 73 74% 87 29.9 1011.3
13 20:53 E 6 10.00 A Few Clouds FEW100 87.1 73 63% 95 29.88 1010.7
13 19:53 E 12 10.00 A Few Clouds FEW060 91 72 54% 99 29.88 1010.5
13 18:53 E 10 10.00 A Few Clouds FEW060 93 72 97 91 50% 101 29.87 1010.4
13 17:53 NE 12 10.00 Partly Cloudy SCT060 93.9 72 49% 102 29.87 1010.3
13 16:53 Calm 10.00 Partly Cloudy SCT060 96.1 70 43% 103 29.88 1010.7
13 15:53 W 5 10.00 Mostly Cloudy BKN055 95 71.1 46% 102 29.9 1011.3
13 14:53 Calm 10.00 Mostly Cloudy SCT050 SCT065 BKN200 93.9 71.1 48% 101 29.92 1011.8
13 13:53 SE 5 10.00 Partly Cloudy FEW048 FEW060 SCT200 93.9 73 51% 103 29.93 1012.3
13 12:53 SW 5 10.00 Partly Cloudy SCT041 SCT060 90 73 91 73 58% 98 29.96 1013.2
13 11:53 Calm 10.00 Partly Cloudy FEW035 SCT060 89.1 73 59% 97 29.96 1013.4
13 10:53 Calm 10.00 Partly Cloudy SCT023 SCT035 87.1 73.9 65% 95 29.97 1013.5
13 09:53 Calm 10.00 Mostly Cloudy BKN018 BKN028 84 75 74% 92 29.97 1013.8
13 08:53 Calm 10.00 Partly Cloudy FEW030 FEW055 SCT200 81 75 82% 87 29.97 1013.6
13 07:53 E 3 10.00 Partly Cloudy FEW050 SCT120 77 75 94% 78 29.95 1013.1
13 06:53 Calm 10.00 A Few Clouds FEW065 FEW110 73 72 80.1 71.1 96% 29.93 1012.5
13 05:53 Calm 10.00 A Few Clouds FEW060 73 72 96% 29.92 1012.0
13 04:53 Calm 10.00 A Few Clouds FEW060 73 72 96% 29.91 1011.7
13 03:53 Calm 8.00 Partly Cloudy SCT060 73 72 96% 29.9 1011.5
13 02:53 Calm 10.00 A Few Clouds FEW050 73.9 73 97% 29.9 1011.4
13 01:53 Calm 10.00 A Few Clouds FEW050 77 73.9 90% 78 29.91 1011.8
13 00:53 E 3 10.00 Partly Cloudy SCT050 SCT060 79 73.9 88 78.1 85% 83 29.93 1012.3
12 23:53 SE 3 10.00 A Few Clouds FEW200 80.1 75 85% 85 29.93 1012.6
12 22:53 SE 3 10.00 Partly Cloudy SCT045 81 75 82% 87 29.92 1012.3
12 21:53 E 5 10.00 Partly Cloudy SCT032 SCT044 82.9 75 77% 90 29.9 1011.5
12 20:53 E 7 10.00 Partly Cloudy SCT043 84 75 74% 92 29.89 1011.2
Date Time (cdt) Wind (mph) Vis. (mi.) Weather Sky Cond. Air Dwpt Max. Min. Relative Humidity Wind Chill (°F) Heat Index (°F) altimeter (in) sea level (mb) 1 hr 3 hr 6 hr
6 hour
Temperature (ºF) Pressure Precipitation (in)